Location: Fenile
(46.0500°N, 9.5500°E)
Time: 18:36:25
(UTC+00:00)

SJ 16-02 - Pass Details

Date: 03 March 2021
Orbit: 605 x 617 km, 75.0° (Epoch: 16 April)

Event Time Altitude Azimuth Distance (km) Brightness Sun altitude
Rises 19:34:41 0° 343° (NNW) 2,883 5.3 -25.4°
Reaches altitude 10° 19:36:58 10° 347° (NNW) 1,976 4.3 -25.8°
Enters shadow 19:39:33 33° 3° (N) 1,040 2.6 -26.2°
